Weather in Olenino

Russia / Tver Oblast     56°12′31″N   33°28′45″E
temp.,
°C
wind,
m/s
gust,
m/s
humid.,
%
clouds,
%
prec.,
mm/h
press.,
hPa
HPBL,
m
5 august, thu
thu500:00+13ese1182100 0.0 101725
03:00+11se2291100 0.0 101713
06:00+13ese2383100 0.0 101664
09:00+14ese2479100 0.1 1016185
12:00+14e2595100 1.3 1015259
15:00+14e2597100 4.2 1014247
18:00+14se269799 1.0 1013298
21:00+12ese229891 1.0 101329
6 august, fri
fri600:00+12ene2299100 0.0 101240
03:00+13e1298100 0.0 101357
06:00+13ne3599100 0.0 1011178
09:00+15ene3694100 0.0 1011374
12:00+15ene4796100 1.8 1011448
15:00+16ene4896100 3.8 1010477
18:00+15e41098100 0.9 1009504
21:00+16ese41099100 4.3 1008494
7 august, sat
sat700:00+16e51298100 4.8 1008471
03:00+15ese41198100 5.1 1007374
06:00+14ese3799100 0.0 1007208
09:00+17ese3594100 0.1 1007252
12:00+17se2599100 0.8 1008221
15:00+22ssw3581100 1.6 1008838
18:00+20wsw3693100 2.8 1008413
21:00+16wsw38976 2.9 1009272
8 august, sun
sun800:00+13wsw27966 0.0 1011146
03:00+11sw26960 0.0 1011129
06:00+11sw279857 0.0 1012188
09:00+16sw478145 0.0 1012778
12:00+19wsw466778 0.0 10131133
15:00+19wsw477199 0.1 1013849
18:00+20w476620 0.0 10141016
21:00+15sw1184100 0.1 101511
9 august, mon
mon900:00+14sw128772 0.0 101511
03:00+13wsw228735 0.0 101617
06:00+13w118822 0.0 101611
09:00+20sw12667 0.0 1016299
12:00+25sw235511 0.0 10151088
15:00+27sw344939 0.0 10141837
18:00+22nw237387 0.0 1014118
21:00+18w499399 3.2 1015276